Time,TemperatureF,DewpointF,PressureIn,WindDirection,WindDirectionDegrees,WindSpeedMPH,WindSpeedGustMPH,Humidity,HourlyPrecipIn,Conditions,Clouds,dailyrainin,SoftwareType,DateUTC
2013-02-11 00:01:00,38.3,31.0,27.50,SSE,167,0.0,-999.0,74,-99.99,,,0.00,weatherlink.com 1.10,2013-02-11 05:01:00,
2013-02-11 00:16:00,38.6,31.0,27.50,SSE,167,0.0,-999.0,75,-99.99,,,0.00,weatherlink.com 1.10,2013-02-11 05:16:00,
2013-02-11 00:31:00,39.3,32.0,27.50,ESE,123,0.0,-999.0,74,-99.99,,,0.00,weatherlink.com 1.10,2013-02-11 05:31:00,
2013-02-11 00:40:00,39.6,32.3,27.50,SE,128,0.0,0.0,75,0.00,,,0.00,Wunderground v.1.15,2013-02-11 05:40:00,
2013-02-11 00:45:00,39.7,32.8,27.50,SE,128,0.0,0.0,76,0.00,,,0.00,Wunderground v.1.15,2013-02-11 05:45:00,
2013-02-11 00:46:00,39.7,33.0,27.50,SE,128,0.0,-999.0,76,-99.99,,,0.00,weatherlink.com 1.10,2013-02-11 05:46:00,
2013-02-11 00:55:00,39.7,33.1,27.50,SSE,151,0.0,0.0,77,0.00,,,0.00,Wunderground v.1.15,2013-02-11 05:55:00,
2013-02-11 01:00:00,39.7,33.4,27.50,South,169,0.0,0.0,78,0.00,,,0.00,Wunderground v.1.15,2013-02-11 06:00:00,
2013-02-11 01:05:00,39.6,33.9,27.50,SSE,165,0.0,0.0,80,0.00,,,0.00,Wunderground v.1.15,2013-02-11 06:05:00,
2013-02-11 01:10:00,39.5,34.2,27.50,SSE,168,0.0,0.0,81,0.00,,,0.01,Wunderground v.1.15,2013-02-11 06:10:00,
2013-02-11 01:15:00,39.3,34.3,27.50,SSE,168,0.0,0.0,82,0.00,,,0.01,Wunderground v.1.15,2013-02-11 06:15:00,
2013-02-11 01:31:00,38.8,35.0,27.50,ESE,111,0.0,-999.0,85,-99.99,,,0.02,weatherlink.com 1.10,2013-02-11 06:31:00,
2013-02-11 01:46:00,38.5,35.0,27.40,ESE,111,0.0,-999.0,87,-99.99,,,0.02,weatherlink.com 1.10,2013-02-11 06:46:00,
2013-02-11 02:01:00,38.3,35.0,27.40,ESE,111,0.0,-999.0,88,-99.99,,,0.03,weatherlink.com 1.10,2013-02-11 07:01:00,
2013-02-11 02:16:00,38.1,35.0,27.40,ESE,111,0.0,-999.0,89,-99.99,,,0.03,weatherlink.com 1.10,2013-02-11 07:16:00,
2013-02-11 02:31:00,37.9,35.0,27.40,ESE,123,0.0,-999.0,90,-99.99,,,0.04,weatherlink.com 1.10,2013-02-11 07:31:00,
2013-02-11 02:46:00,37.8,36.0,27.40,ESE,123,0.0,-999.0,91,-99.99,,,0.04,weatherlink.com 1.10,2013-02-11 07:46:00,
2013-02-11 03:01:00,37.8,36.0,27.40,SE,124,0.0,-999.0,91,-99.99,,,0.04,weatherlink.com 1.10,2013-02-11 08:01:00,
2013-02-11 03:16:00,37.8,36.0,27.40,SE,124,0.0,-999.0,92,-99.99,,,0.05,weatherlink.com 1.10,2013-02-11 08:16:00,
2013-02-11 03:31:00,37.8,36.0,27.40,SE,124,0.0,-999.0,93,-99.99,,,0.06,weatherlink.com 1.10,2013-02-11 08:31:00,
2013-02-11 03:46:00,37.8,36.0,27.40,SE,125,0.0,-999.0,93,-99.99,,,0.06,weatherlink.com 1.10,2013-02-11 08:46:00,
2013-02-11 04:01:00,37.7,36.0,27.40,SE,125,0.0,-999.0,93,-99.99,,,0.07,weatherlink.com 1.10,2013-02-11 09:01:00,
2013-02-11 04:16:00,37.7,36.0,27.40,SE,126,0.0,-999.0,93,-99.99,,,0.08,weatherlink.com 1.10,2013-02-11 09:16:00,
2013-02-11 04:31:00,37.6,36.0,27.40,SE,126,0.0,-999.0,94,-99.99,,,0.08,weatherlink.com 1.10,2013-02-11 09:31:00,
2013-02-11 04:46:00,37.6,36.0,27.40,SE,126,0.0,-999.0,94,-99.99,,,0.09,weatherlink.com 1.10,2013-02-11 09:46:00,
2013-02-11 05:16:00,37.6,36.0,27.40,SE,125,0.0,-999.0,94,-99.99,,,0.11,weatherlink.com 1.10,2013-02-11 10:16:00,
2013-02-11 05:31:00,37.7,36.0,27.40,SE,126,0.0,-999.0,95,-99.99,,,0.12,weatherlink.com 1.10,2013-02-11 10:31:00,
2013-02-11 05:46:00,37.7,36.0,27.40,ESE,110,0.0,-999.0,95,-99.99,,,0.12,weatherlink.com 1.10,2013-02-11 10:46:00,
2013-02-11 06:01:00,37.8,37.0,27.40,ESE,110,0.0,-999.0,95,-99.99,,,0.13,weatherlink.com 1.10,2013-02-11 11:01:00,
2013-02-11 06:16:00,37.9,37.0,27.40,ESE,110,0.0,-999.0,95,-99.99,,,0.14,weatherlink.com 1.10,2013-02-11 11:16:00,
2013-02-11 06:31:00,37.9,37.0,27.40,ESE,110,0.0,-999.0,95,-99.99,,,0.15,weatherlink.com 1.10,2013-02-11 11:31:00,
2013-02-11 06:46:00,37.9,37.0,27.40,ESE,110,0.0,-999.0,95,-99.99,,,0.16,weatherlink.com 1.10,2013-02-11 11:46:00,
2013-02-11 07:01:00,38.1,37.0,27.40,ESE,110,0.0,-999.0,95,-99.99,,,0.16,weatherlink.com 1.10,2013-02-11 12:01:00,
2013-02-11 07:16:00,38.3,37.0,27.40,South,180,0.0,-999.0,95,-99.99,,,0.17,weatherlink.com 1.10,2013-02-11 12:16:00,
2013-02-11 07:31:00,38.4,37.0,27.40,South,182,0.0,-999.0,95,-99.99,,,0.18,weatherlink.com 1.10,2013-02-11 12:31:00,
2013-02-11 07:46:00,38.6,37.0,27.40,South,188,0.0,-999.0,95,-99.99,,,0.18,weatherlink.com 1.10,2013-02-11 12:46:00,
2013-02-11 08:01:00,38.7,37.0,27.40,ESE,114,0.0,-999.0,95,-99.99,,,0.19,weatherlink.com 1.10,2013-02-11 13:01:00,
2013-02-11 08:16:00,38.8,38.0,27.40,South,187,0.0,-999.0,95,-99.99,,,0.20,weatherlink.com 1.10,2013-02-11 13:16:00,
2013-02-11 08:31:00,39.2,38.0,27.40,South,172,0.0,-999.0,96,-99.99,,,0.20,weatherlink.com 1.10,2013-02-11 13:31:00,
2013-02-11 08:46:00,39.7,39.0,27.40,South,177,0.0,-999.0,96,-99.99,,,0.21,weatherlink.com 1.10,2013-02-11 13:46:00,
2013-02-11 09:01:00,40.0,39.0,27.40,SSW,202,0.0,-999.0,96,-99.99,,,0.21,weatherlink.com 1.10,2013-02-11 14:01:00,
2013-02-11 09:16:00,40.4,39.0,27.40,SW,215,0.0,-999.0,96,-99.99,,,0.22,weatherlink.com 1.10,2013-02-11 14:16:00,
2013-02-11 09:31:00,40.8,40.0,27.40,SSE,153,1.0,-999.0,96,-99.99,,,0.22,weatherlink.com 1.10,2013-02-11 14:31:00,
2013-02-11 09:46:00,41.1,40.0,28.01,SSE,157,2.0,-999.0,96,-99.99,,,0.23,weatherlink.com 1.10,2013-02-11 14:46:00,
2013-02-11 10:01:00,41.4,40.0,27.64,South,184,0.0,-999.0,96,-99.99,,,0.23,weatherlink.com 1.10,2013-02-11 15:01:00,
2013-02-11 10:16:00,41.8,41.0,27.38,SSW,205,0.0,-999.0,96,-99.99,,,0.24,weatherlink.com 1.10,2013-02-11 15:16:00,
2013-02-11 10:32:00,42.3,41.0,27.34,South,187,0.0,-999.0,96,-99.99,,,0.24,weatherlink.com 1.10,2013-02-11 15:32:00,
2013-02-11 10:46:00,42.9,42.0,27.34,WSW,252,0.0,-999.0,96,-99.99,,,0.24,weatherlink.com 1.10,2013-02-11 15:46:00,
2013-02-11 11:01:00,43.6,43.0,22.30,SSW,206,0.0,-999.0,97,-99.99,,,0.25,weatherlink.com 1.10,2013-02-11 16:01:00,
2013-02-11 11:17:00,44.1,43.0,22.30,South,188,0.0,-999.0,97,-99.99,,,0.25,weatherlink.com 1.10,2013-02-11 16:17:00,
2013-02-11 11:31:00,44.9,44.0,22.30,SSW,197,0.0,-999.0,97,-99.99,,,0.25,weatherlink.com 1.10,2013-02-11 16:31:00,
2013-02-11 11:46:00,45.3,45.0,22.30,WSW,238,0.0,-999.0,97,-99.99,,,0.25,weatherlink.com 1.10,2013-02-11 16:46:00,
2013-02-11 12:01:00,45.5,45.0,22.30,SSE,161,2.0,-999.0,96,-99.99,,,0.26,weatherlink.com 1.10,2013-02-11 17:01:00,
2013-02-11 12:17:00,45.6,45.0,22.30,SSW,204,0.0,-999.0,96,-99.99,,,0.26,weatherlink.com 1.10,2013-02-11 17:17:00,
2013-02-11 12:31:00,45.8,45.0,22.30,South,178,2.0,-999.0,96,-99.99,,,0.26,weatherlink.com 1.10,2013-02-11 17:31:00,
2013-02-11 12:46:00,46.1,45.0,22.30,SSW,199,0.0,-999.0,96,-99.99,,,0.26,weatherlink.com 1.10,2013-02-11 17:46:00,
2013-02-11 13:02:00,46.5,46.0,22.30,South,180,0.0,-999.0,96,-99.99,,,0.27,weatherlink.com 1.10,2013-02-11 18:02:00,
2013-02-11 13:16:00,47.0,46.0,22.30,SW,217,1.0,-999.0,96,-99.99,,,0.27,weatherlink.com 1.10,2013-02-11 18:16:00,
2013-02-11 13:32:00,47.4,46.0,22.30,WNW,294,0.0,-999.0,96,-99.99,,,0.27,weatherlink.com 1.10,2013-02-11 18:32:00,
2013-02-11 13:47:00,47.9,47.0,22.30,SSW,197,0.0,-999.0,96,-99.99,,,0.28,weatherlink.com 1.10,2013-02-11 18:47:00,
2013-02-11 14:02:00,48.5,48.0,28.10,SSW,192,0.0,-999.0,96,-99.99,,,0.28,weatherlink.com 1.10,2013-02-11 19:02:00,
2013-02-11 14:17:00,49.2,48.0,28.10,South,190,0.0,-999.0,96,-99.99,,,0.28,weatherlink.com 1.10,2013-02-11 19:17:00,
2013-02-11 14:32:00,49.9,49.0,28.10,SSW,193,0.0,-999.0,96,-99.99,,,0.28,weatherlink.com 1.10,2013-02-11 19:32:00,
2013-02-11 14:47:00,50.7,50.0,28.10,SSW,202,0.0,-999.0,96,-99.99,,,0.29,weatherlink.com 1.10,2013-02-11 19:47:00,
2013-02-11 15:02:00,51.4,50.0,27.91,SSW,194,1.0,-999.0,95,-99.99,,,0.29,weatherlink.com 1.10,2013-02-11 20:02:00,
2013-02-11 15:17:00,51.9,51.0,27.91,SSE,153,2.0,-999.0,95,-99.99,,,0.30,weatherlink.com 1.10,2013-02-11 20:17:00,
2013-02-11 15:32:00,52.6,51.0,27.85,SW,227,1.0,-999.0,94,-99.99,,,0.30,weatherlink.com 1.10,2013-02-11 20:32:00,
2013-02-11 15:47:00,52.9,51.0,27.85,SSW,198,0.0,-999.0,93,-99.99,,,0.30,weatherlink.com 1.10,2013-02-11 20:47:00,
2013-02-11 16:02:00,53.1,51.0,27.85,South,188,0.0,-999.0,93,-99.99,,,0.30,weatherlink.com 1.10,2013-02-11 21:02:00,
2013-02-11 16:17:00,53.1,51.0,28.04,SE,146,1.0,-999.0,92,-99.99,,,0.30,weatherlink.com 1.10,2013-02-11 21:17:00,
2013-02-11 16:32:00,53.0,51.0,28.04,WSW,249,0.0,-999.0,92,-99.99,,,0.30,weatherlink.com 1.10,2013-02-11 21:32:00,
2013-02-11 16:47:00,52.7,51.0,28.04,SSE,153,1.0,-999.0,92,-99.99,,,0.30,weatherlink.com 1.10,2013-02-11 21:47:00,
2013-02-11 17:02:00,52.5,50.0,27.80,West,259,0.0,-999.0,92,-99.99,,,0.30,weatherlink.com 1.10,2013-02-11 22:02:00,
2013-02-11 17:17:00,52.4,50.0,27.80,South,174,0.0,-999.0,92,-99.99,,,0.30,weatherlink.com 1.10,2013-02-11 22:17:00,
2013-02-11 17:32:00,52.2,50.0,27.80,South,176,0.0,-999.0,93,-99.99,,,0.30,weatherlink.com 1.10,2013-02-11 22:32:00,
2013-02-11 17:47:00,52.3,50.0,27.80,SSE,150,0.0,-999.0,93,-99.99,,,0.30,weatherlink.com 1.10,2013-02-11 22:47:00,
2013-02-11 18:02:00,52.2,50.0,27.80,South,186,0.0,-999.0,93,-99.99,,,0.31,weatherlink.com 1.10,2013-02-11 23:02:00,
2013-02-11 18:17:00,52.2,50.0,25.05,SSE,150,0.0,-999.0,93,-99.99,,,0.31,weatherlink.com 1.10,2013-02-11 23:17:00,
2013-02-11 18:32:00,52.5,51.0,25.05,SSW,194,0.0,-999.0,93,-99.99,,,0.31,weatherlink.com 1.10,2013-02-11 23:32:00,
2013-02-11 18:47:00,52.7,51.0,25.05,SW,226,0.0,-999.0,93,-99.99,,,0.31,weatherlink.com 1.10,2013-02-11 23:47:00,
2013-02-11 19:02:00,52.8,51.0,25.05,SW,226,0.0,-999.0,93,-99.99,,,0.31,weatherlink.com 1.10,2013-02-12 00:02:00,
2013-02-11 19:17:00,52.9,51.0,25.05,SW,226,0.0,-999.0,93,-99.99,,,0.31,weatherlink.com 1.10,2013-02-12 00:17:00,
2013-02-11 19:32:00,53.0,51.0,25.05,SSE,165,1.0,-999.0,93,-99.99,,,0.31,weatherlink.com 1.10,2013-02-12 00:32:00,
2013-02-11 19:47:00,52.9,51.0,25.05,West,267,0.0,-999.0,93,-99.99,,,0.31,weatherlink.com 1.10,2013-02-12 00:47:00,
2013-02-11 20:02:00,52.6,51.0,25.05,SW,219,0.0,-999.0,93,-99.99,,,0.31,weatherlink.com 1.10,2013-02-12 01:02:00,
2013-02-11 20:17:00,52.4,51.0,25.05,South,175,1.0,-999.0,93,-99.99,,,0.31,weatherlink.com 1.10,2013-02-12 01:17:00,
2013-02-11 20:32:00,52.2,50.0,25.05,SSW,205,0.0,-999.0,93,-99.99,,,0.31,weatherlink.com 1.10,2013-02-12 01:32:00,
2013-02-11 20:47:00,51.8,50.0,25.05,SSW,205,0.0,-999.0,93,-99.99,,,0.31,weatherlink.com 1.10,2013-02-12 01:47:00,
2013-02-11 21:02:00,51.4,50.0,25.05,SSW,205,0.0,-999.0,93,-99.99,,,0.31,weatherlink.com 1.10,2013-02-12 02:02:00,
2013-02-11 21:17:00,51.1,49.0,25.05,SSW,207,0.0,-999.0,93,-99.99,,,0.31,weatherlink.com 1.10,2013-02-12 02:17:00,
2013-02-11 21:32:00,50.1,48.0,25.05,SSW,208,0.0,-999.0,93,-99.99,,,0.31,weatherlink.com 1.10,2013-02-12 02:32:00,
2013-02-11 21:47:00,49.2,47.0,25.05,SSW,208,0.0,-999.0,93,-99.99,,,0.31,weatherlink.com 1.10,2013-02-12 02:47:00,
2013-02-11 22:02:00,48.5,47.0,25.05,SSW,207,0.0,-999.0,94,-99.99,,,0.31,weatherlink.com 1.10,2013-02-12 03:02:00,
2013-02-11 22:17:00,48.7,47.0,25.05,SSW,208,0.0,-999.0,95,-99.99,,,0.31,weatherlink.com 1.10,2013-02-12 03:17:00,
2013-02-11 22:32:00,49.7,48.0,25.05,SW,234,0.0,-999.0,95,-99.99,,,0.31,weatherlink.com 1.10,2013-02-12 03:32:00,
2013-02-11 22:47:00,49.5,48.0,25.05,SW,234,0.0,-999.0,94,-99.99,,,0.31,weatherlink.com 1.10,2013-02-12 03:47:00,
2013-02-11 23:02:00,47.7,46.0,25.05,SW,233,0.0,-999.0,92,-99.99,,,0.31,weatherlink.com 1.10,2013-02-12 04:02:00,
2013-02-11 23:17:00,46.0,44.0,25.05,SW,233,0.0,-999.0,92,-99.99,,,0.31,weatherlink.com 1.10,2013-02-12 04:17:00,
2013-02-11 23:32:00,44.7,43.0,25.05,SW,234,0.0,-999.0,93,-99.99,,,0.31,weatherlink.com 1.10,2013-02-12 04:32:00,
2013-02-11 23:47:00,43.4,42.0,25.05,SW,234,0.0,-999.0,93,-99.99,,,0.31,weatherlink.com 1.10,2013-02-12 04:47:00,